Flag for Poland Weather past 2 weeks in Chorzów, Poland

Now
52 °F

Scattered clouds.


Feels Like: 47 °F
Forecast: 46 / 65 °F
Wind: 16 mph from East

Location: Katowice Airport


UV Index: 3 (Moderate)

Visibility: N/A


Pressure: 29.92 "Hg

Humidity: 94%

Dew point: 50 °F

Location of ChorzówLocation

Historic Weather in Chorzów

°F

Chorzów temperature yesterday

Maximum temperature yesterday: 63 °F (at 3:30 PM)
Minimum temperature yesterday: 30 °F (at 5:00 AM)
Average temperature yesterday: 48 °F

Past Weeks' High & Low Weather Summary

 TemperatureHumidityPressure
High70 °F (Apr 8, 1:30 PM)100% (Apr 10, 5:00 AM)30.33 "Hg (Apr 10, 5:00 AM)
Low28 °F (Apr 13, 5:30 AM)31% (Apr 18, 1:30 PM)29.68 "Hg (Apr 14, 11:30 AM)
Average46 °F75%29.99 "Hg
* Reported Apr 4 7:00 PM — Apr 19 7:30 PM, Chorzów, Weather by CustomWeather, © 2014

Note: Actual official high and low records may vary slightly from our data, if they occured in-between our weather recording intervals... More about our weather records

Advertising

Historic Weather Conditions — Data for Previous 24 hours

 ConditionsComfort  
Time TempWeatherWind HumidityBarometerVisibility
7:30 PM
Apr 19
52 °FSprinkles. Scattered clouds.18 mph94%29.92 "HgN/A
7:00 PM52 °FSprinkles. Scattered clouds.18 mph94%29.92 "HgN/A
6:30 PM52 °FSprinkles. Scattered clouds.22 mph94%29.92 "HgN/A
6:00 PM55 °FSprinkles. Scattered clouds.26 mph77%29.92 "HgN/A
5:30 PM55 °FSprinkles. Passing clouds.20 mph72%29.92 "HgN/A
5:00 PM59 °FScattered clouds.22 mph63%29.92 "HgN/A
4:30 PM61 °FPassing clouds.22 mph55%29.89 "HgN/A
4:00 PM61 °FSunny.20 mph59%29.89 "Hg10 mi
3:30 PM63 °FPassing clouds.14 mph56%29.89 "HgN/A
3:00 PM63 °FPassing clouds.20 mph49%29.89 "HgN/A
2:30 PM64 °FPassing clouds.26 mph46%29.89 "HgN/A
2:00 PM68 °FPassing clouds.25 mph40%29.86 "HgN/A
1:30 PM68 °FSunny.26 mph38%29.89 "Hg10 mi
1:00 PM68 °FPassing clouds.26 mph43%29.89 "HgN/A
12:30 PM66 °FSunny.22 mph40%29.89 "Hg10 mi
12:00 PM64 °FSunny.20 mph46%29.89 "Hg10 mi
11:30 AM64 °FSunny.18 mph49%29.92 "Hg10 mi
11:00 AM63 °FSunny.15 mph59%29.92 "Hg10 mi
10:30 AM59 °FSunny.10 mph68%29.92 "Hg10 mi
10:00 AM57 °FSunny.13 mph72%29.92 "Hg10 mi
9:30 AM57 °FSunny.12 mph72%29.92 "Hg10 mi
9:00 AM54 °FSunny.9 mph77%29.92 "Hg10 mi
8:30 AM52 °FSunny.10 mph88%29.92 "Hg10 mi
8:00 AM52 °FSunny.10 mph88%29.92 "Hg10 mi
7:30 AM50 °FSunny.12 mph88%29.92 "Hg10 mi
7:00 AM46 °FClear.9 mph100%29.92 "Hg4 mi
6:30 AM45 °FFog.7 mph100%29.89 "Hg2 mi
6:00 AM45 °FFog.5 mph100%29.89 "Hg1 mi
5:30 AM45 °FQuite cool.No wind100%29.89 "Hg1 mi
5:00 AM45 °FQuite cool.2 mph100%29.89 "Hg1 mi
4:30 AM45 °FFog.2 mph100%29.86 "Hg1 mi
4:00 AM45 °FFog.2 mph100%29.86 "Hg1 mi
3:30 AM43 °FFog.2 mph100%29.86 "Hg2 mi
3:00 AM45 °FFog.1 mph100%29.86 "Hg2 mi
2:30 AM45 °FFog.2 mph100%29.86 "Hg3 mi
2:00 AM45 °FClear.5 mph100%29.86 "Hg4 mi
1:30 AM46 °FClear.3 mph93%29.86 "Hg4 mi
1:00 AM46 °FClear.5 mph100%29.86 "Hg4 mi
12:30 AM48 °FPassing clouds.5 mph94%29.86 "Hg4 mi
12:00 AM48 °FPassing clouds.3 mph94%29.86 "Hg4 mi
11:30 PM
Apr 18
48 °FPassing clouds.3 mph94%29.86 "Hg4 mi
11:00 PM50 °FSprinkles. Passing clouds.5 mph94%29.86 "Hg4 mi
10:30 PM50 °FPassing clouds.6 mph94%29.86 "HgN/A
10:00 PM52 °FSprinkles. Passing clouds.6 mph94%29.83 "Hg4 mi
9:30 PM52 °FSprinkles. Partly cloudy.5 mph94%29.83 "Hg5 mi
9:00 PM54 °FSprinkles. Partly cloudy.1 mph82%29.83 "Hg5 mi
8:30 PM52 °FSprinkles. Broken clouds.3 mph94%29.83 "Hg5 mi
8:00 PM55 °FSprinkles. Scattered clouds.7 mph72%29.83 "Hg5 mi
Weather by CustomWeather, © 2014

See weather overview